Regional Weather Roundup
Issued by NWS Green Bay, WI

Home | Current Version | Previous Version | Graphics & Text | Print | Product List | Glossary Off
Versions: 1 2 3 4 5 6 7 8 9 10 11 12 13 14 15 16 17 18 19 20 21 22 23 24 25 26 27 28 29 30 31 32 33 34 35 36 37 38 39 40 41 42 43 44 45 46 47 48 49 50

000
ASUS43 KGRB 041700
RWRGRB

NORTH-CENTRAL AND NORTHEAST WISCONSIN REGIONAL WEATHER ROUNDUP
NATIONAL WEATHER SERVICE GREEN BAY WI
1200 PM CDT WED MAY 04 2016

WIZ005-009-010>012-018-019-041800-
NORTH CENTRAL WISCONSIN

CITY           SKY/WX    TMP DP  RH WIND       PRES   REMARKS
IRONWOOD         N/A     43  30  61 N13G20    29.94R
MANITOWISH WTR NOT AVBL
ARBOR VITAE    NOT AVBL
EAGLE RIVER    NOT AVBL
LAND O LAKES   NOT AVBL
RHINELANDER    PTSUNNY   46  31  55 N16G24    29.89R
PHILLIPS       NOT AVBL
ANTIGO         NOT AVBL
TOMAHAWK       NOT AVBL
MERRILL        NOT AVBL
$$

WIZ013-073-041800-
NORTHEAST WISCONSIN

CITY           SKY/WX    TMP DP  RH WIND       PRES   REMARKS
IRON MOUNTAIN  CLOUDY    45  32  60 N18G26    29.85R
MARINETTE      CLOUDY    48  36  61 N13       29.83R
$$

WIZ017-030-035>037-045-041800-
CENTRAL WISCONSIN

CITY           SKY/WX    TMP DP  RH WIND       PRES   REMARKS
MEDFORD        NOT AVBL
WAUSAU         MOSUNNY   54  28  36 N16G23    29.84R
MOSINEE        MOSUNNY   52  27  37 N18G29    29.87R
MARSHFIELD     SUNNY     55  30  38 N15G28    29.86R
WISC RAPIDS    MOSUNNY   57  29  34 N13G25    29.86S
STEVENS POINT  NOT AVBL
WAUPACA        NOT AVBL
SHAWANO        NOT AVBL
CLINTONVILLE   NOT AVBL
WAUTOMA        MOSUNNY   54  32  43 N17G25    29.83S
$$

WIZ038-039-048-051-041800-
FOX VALLEY

CITY           SKY/WX    TMP DP  RH WIND       PRES   REMARKS
NWS GREEN BAY  CLOUDY    48  36  63 N16G22    29.82R
APPLETON       PTSUNNY   46  34  61 N17       29.81R
OSHKOSH        CLOUDY    49  35  58 N17       29.82R
FOND DU LAC    CLOUDY    49  36  61 N18       29.82S
$$

WIZ022-050-052-041800-
EAST CENTRAL WISCONSIN

CITY           SKY/WX    TMP DP  RH WIND       PRES   REMARKS
EPHRAIM        NOT AVBL
STURGEON BAY   CLOUDY    45  34  65 N20       29.83R
MANITOWOC      NOT AVBL
SHEBOYGAN      CLOUDY    46  34  62 N17G28    29.80R
$$

LMZ563-521-522-541>543-041800-
LAKESHORE

STATION/POSITION TIME  TEMP    WIND        PRES    VSBY  WAVE
                       AIR SEA DIR/SP/G                  HT/PER
                 (UTC) (F)     (DEG/KT/KT) (MB)    (MI)  (FT/S)
SHEBOYGAN LKSHOR 1600   45      10/ 24/ 26 1008.9R
KEWAUNEE LKSHORE 1600   45     360/ 11/ 22 1008.1R
ALGOMA MARINA    1615          350/ 20/ 27   N/A
NORTHPORT PIER   1602   41     340/ 20     1009.1R
N MID LAKE BUOY  1550   39 39  330/ 19/ 21 1007.6R         4/ 5
CHAMBERS ISLAND  1600   43     340/ 17/ 22 1009.5S
MENOMINEE LKSHOR 1600   44     350/ 19/ 24 1008.3R
$$



USA.gov is the U.S. government's official web portal to all federal, state and local government web resources and services.